H1 CPF  2 ESA 2024  6  7 10 159 01 galileo215
H2  1707901 7215    43055 2024  6  6 23 59 42 2024  6 11 23 59 42   900 1 1  0 0 0  1
H9
10 0 60472  86382.000000  0      25141749.917     -13887415.485      -7164050.529
99